Theta_e
303 303 304 304 306 307 303 298 288 306 308 290 286 286 289 293 292 294 291 290 288 285 287 286 287 285 287 291 291 287 290 287 279 281 289 292 289 286 286 280 278 282 281 280
303 303 303 303 305 307 299 294 295 306 300 283 285 291 290 292 291 291 289 288 290 290 288 285 288 290 295 293 290 287 290 285 275 277 285 288 287 289 289 288 286 281 278 281
303 303 303 302 305 306 301 293 288 291 296 294 289 289 288 287 292 292 292 290 291 289 288 290 287 288 294 293 292 296 294 287 281 276 280 287 285 287 289 286 281 283 283 285
303 302 302 302 304 306 300 294 289 291 285 288 291 292 290 287 287 291 293 290 290 289 286 287 287 289 290 293 294 294 291 283 286 287 289 289 288 287 288 285 286 283 286 288
303 302 302 302 304 305 298 293 293 295 291 292 291 291 287 288 289 290 289 287 291 291 287 288 287 289 290 288 290 289 290 284 287 286 289 289 286 288 288 288 288 287 288 288
302 302 302 301 304 304 294 296 298 297 293 291 289 289 290 291 293 293 294 293 291 290 292 294 295 296 294 292 291 289 288 286 286 282 288 287 285 290 292 289 290 289 285 291
302 302 301 301 303 304 299 298 297 295 289 292 291 292 294 292 293 291 296 296 293 296 300 298 296 295 294 293 291 292 288 287 289 284 286 281 291 296 298 295 297 292 295 293
302 302 301 301 303 305 299 300 298 296 290 293 293 293 293 294 294 294 295 297 299 301 297 290 287 287 288 288 291 291 291 290 287 283 285 288 289 291 294 293 294 294 296 294
301 301 301 301 302 305 301 300 303 300 294 291 296 292 294 293 292 293 295 299 302 300 294 288 282 280 283 283 287 290 291 292 288 285 282 278 287 291 292 292 287 295 295 295
301 301 300 301 302 304 301 300 303 300 293 296 297 294 293 297 294 291 293 294 296 299 291 284 282 285 286 283 284 287 285 288 286 284 285 284 291 294 294 283 287 292 293 294
301 301 300 300 303 303 301 299 303 301 294 295 298 299 296 296 296 291 293 291 295 293 289 285 283 283 287 285 286 287 285 284 281 283 283 278 292 292 288 291 293 294 293 293
301 300 300 300 303 303 303 298 304 308 300 297 304 302 302 303 302 298 295 293 294 295 290 286 286 284 285 284 283 287 285 287 284 285 286 292 293 292 294 295 293 293 291 291
299 300 300 302 302 303 302 299 301 304 300 298 298 297 303 307 305 306 295 297 299 297 294 290 289 287 287 283 284 284 287 291 288 289 290 292 294 293 293 294 292 292 291 290
299 301 301 302 302 302 302 298 301 300 300 292 294 304 302 306 306 305 304 302 302 302 296 292 290 288 290 288 287 287 289 291 289 288 292 292 293 293 293 292 292 291 291 290
300 301 301 301 302 302 301 300 301 304 300 295 296 301 303 304 304 302 303 301 299 300 297 293 290 293 293 292 291 286 291 290 289 288 294 293 293 293 294 293 292 291 290 288
298 299 300 301 302 302 298 297 304 306 306 298 290 300 300 300 302 301 300 301 301 299 297 295 297 298 295 290 285 293 292 294 295 295 293 293 293 294 294 292 292 291 290 289
299 300 301 302 302 299 294 296 300 305 307 298 290 291 298 299 299 299 299 300 300 299 298 296 296 295 295 291 284 294 294 294 293 294 294 292 293 292 293 293 292 292 289 288
300 301 302 302 302 301 297 302 305 305 302 298 286 289 293 299 296 295 298 297 298 297 296 296 295 294 293 287 292 293 292 292 292 292 293 294 293 292 291 291 291 288 286 286
302 302 302 300 298 295 300 306 306 305 300 291 289 287 285 298 295 296 295 296 292 295 293 294 294 291 287 291 292 292 292 291 291 291 291 292 291 290 290 290 289 287 286 285
303 300 295 292 298 305 305 302 299 296 296 295 291 294 290 293 293 291 291 291 289 285 291 291 289 290 293 294 294 293 292 291 291 289 286 287 287 288 288 289 288 288 286 285
298 295 293 300 305 300 296 290 291 291 288 293 292 293 291 294 289 289 289 286 286 284 284 287 284 284 287 288 290 291 291 291 290 292 292 292 292 290 288 287 286 286 286 285
295 295 298 299 293 290 288 287 287 288 287 291 291 292 293 292 293 288 287 286 286 282 284 285 282 284 285 287 287 289 290 291 290 290 291 290 290 289 288 287 286 284 284 284
298 293 290 290 287 286 285 283 285 285 283 288 288 287 290 290 290 286 286 284 284 283 282 281 282 283 285 285 286 286 288 289 289 288 289 289 288 288 288 286 285 285 283 282
287 285 284 285 284 286 285 281 280 282 286 288 289 287 287 288 287 285 283 282 282 280 275 275 279 281 283 284 285 286 285 286 286 286 287 287 286 285 285 285 285 284 281 281
285 285 283 284 284 284 285 285 285 287 290 288 287 286 287 284 283 281 282 280 278 278 277 277 278 281 282 282 283 284 284 284 284 285 285 284 284 283 282 284 283 282 281 279
285 283 279 282 282 283 284 285 285 288 289 287 287 284 283 282 282 276 276 273 274 279 278 275 271 281 281 281 283 283 283 283 284 284 284 284 283 282 280 280 281 280 279 278
280 276 282 279 280 280 282 285 286 291 287 286 284 283 283 278 276 274 274 277 280 275 274 274 276 278 281 281 282 282 283 283 283 283 282 281 281 281 280 277 275 276 276 276
Wind_Speed
26 26 27 27 29 26 10 3 1 6 14 5 1 4 6 4 5 4 3 4 4 6 7 7 7 8 5 5 8 11 9 3 5 13 11 15 16 11 17 11 8 7 10 33
25 26 25 26 28 27 8 3 2 8 9 5 5 6 2 5 4 3 3 3 4 2 5 3 8 5 6 8 8 11 10 5 3 9 3 3 8 15 18 15 9 15 12 20
23 24 24 25 28 26 7 2 2 4 5 1 9 6 5 6 2 4 4 5 5 4 5 7 3 6 3 3 12 10 14 4 6 7 5 3 7 11 17 18 10 4 19 31
22 23 23 24 27 26 4 2 1 2 5 3 10 3 7 6 5 1 4 2 6 7 4 6 11 11 4 5 8 9 10 7 8 14 18 18 19 24 23 23 18 15 20 20
21 21 22 23 25 20 4 3 2 2 7 12 8 3 6 12 6 7 6 6 9 11 11 10 6 9 7 6 2 8 4 5 6 16 16 19 24 24 23 17 20 18 19 26
21 20 21 21 24 13 3 3 4 1 11 10 6 5 6 6 6 5 5 12 10 14 18 13 12 3 2 2 1 7 6 4 3 8 11 15 8 9 5 3 4 11 13 14
20 20 21 20 22 19 2 4 4 1 2 7 7 10 6 9 16 8 3 8 9 3 6 2 5 8 9 7 9 6 3 5 3 6 10 3 5 6 5 2 4 14 10 3
19 19 20 21 22 22 4 3 3 2 3 5 5 6 8 6 6 7 7 8 9 8 6 3 4 4 4 8 13 11 14 5 3 3 5 7 4 3 3 1 4 6 5 5
17 18 18 20 21 20 6 6 3 2 2 7 7 10 8 2 2 3 4 3 5 9 4 4 4 5 5 5 3 1 6 6 3 2 4 4 4 2 1 4 0 9 9 2
17 18 18 19 20 19 9 4 3 3 1 1 5 3 6 4 3 1 2 2 5 11 5 3 3 3 5 5 6 5 4 3 6 3 3 9 8 7 5 1 2 1 2 3
17 16 17 17 19 18 10 7 5 2 1 1 2 4 4 2 2 2 2 1 4 6 6 3 4 3 4 3 3 6 7 7 4 4 3 8 4 7 4 3 5 3 2 3
17 17 17 15 18 17 12 4 4 3 2 2 1 1 1 3 4 3 4 2 5 4 2 1 3 2 2 3 3 1 5 7 6 8 8 5 3 3 3 2 4 3 2 1
17 17 17 18 17 17 10 5 4 3 1 2 1 3 1 3 3 3 2 3 1 2 2 3 2 2 4 4 6 5 4 4 2 1 3 6 5 3 1 3 2 4 4 6
18 19 19 17 17 15 11 4 4 4 0 1 2 1 2 1 5 3 1 0 2 2 2 2 2 2 2 2 2 3 4 5 4 5 9 6 6 5 5 4 5 7 7 6
20 20 19 17 16 16 8 6 5 6 2 1 1 1 1 2 4 4 2 2 3 2 2 2 3 2 2 1 1 4 6 7 6 6 6 3 3 4 6 6 5 6 10 12
21 20 20 18 16 11 3 3 3 5 2 2 2 0 2 2 2 2 3 2 2 2 2 3 2 1 3 3 4 6 5 3 4 2 1 2 4 6 3 6 6 6 8 11
24 21 19 18 12 2 4 3 1 6 1 1 2 2 0 3 3 1 2 2 2 1 2 3 2 1 4 2 4 4 5 5 4 3 5 2 2 3 6 10 10 13 11 10
24 24 19 11 9 7 6 4 8 4 1 1 1 2 1 2 2 1 0 1 1 2 2 0 2 1 2 4 8 4 3 4 5 2 1 2 9 8 9 8 12 13 11 11
24 13 7 2 2 3 2 5 8 1 2 2 1 2 2 1 1 0 0 1 1 1 2 1 1 2 6 7 5 4 6 4 7 5 7 6 7 10 9 10 8 14 10 10
4 4 3 3 4 5 8 2 3 3 2 2 2 1 2 0 1 1 1 2 0 1 1 2 2 5 5 3 1 1 3 7 8 7 3 5 5 9 9 6 6 10 11 11
2 2 1 2 6 1 3 2 2 1 2 2 3 3 3 1 1 1 1 1 0 1 2 2 3 5 3 4 2 2 2 6 3 2 3 5 10 12 11 10 10 11 12 12
4 4 5 2 2 3 1 2 1 3 4 2 3 2 2 1 1 3 2 0 1 3 3 2 4 4 2 3 4 5 2 6 4 2 7 9 11 11 12 11 12 10 12 13
2 2 1 1 2 3 4 6 2 3 2 2 2 2 2 2 2 3 1 1 2 1 1 4 6 3 1 2 2 4 5 6 6 7 7 11 11 10 13 13 11 13 13 10
3 1 1 2 2 2 2 2 3 2 1 1 3 2 2 1 3 1 2 1 1 1 2 7 3 3 1 1 2 3 4 7 8 9 9 11 13 12 11 12 12 14 13 11
1 1 1 1 1 1 1 1 1 2 1 1 2 2 2 1 3 1 2 0 4 5 6 5 3 1 2 2 2 6 6 6 7 8 11 12 13 13 12 10 12 13 13 12
2 2 1 2 1 1 0 0 2 2 1 0 2 3 2 2 3 3 7 6 7 5 4 3 1 2 2 3 4 5 6 7 8 8 10 12 12 13 13 12 11 11 12 12
3 3 1 1 2 2 2 1 2 1 2 2 2 5 5 3 2 3 5 7 4 3 3 1 2 3 4 5 5 6 7 9 9 11 11 12 12 13 14 14 7 11 11 11
Wind_Direction
329 326 329 333 332 345 334 273 178 158 145 126 169 147 152 133 119 74 105 100 108 145 159 177 216 219 233 144 136 174 202 258 244 233 221 206 208 214 213 225 242 242 265 271
329 328 333 334 333 345 327 292 184 158 127 150 166 158 85 90 111 149 110 100 93 116 148 190 226 217 192 166 161 170 165 222 324 315 8 183 233 236 233 238 251 246 271 272
332 327 335 333 334 341 330 271 112 57 163 283 166 146 139 103 89 132 117 112 99 132 191 208 255 233 212 193 202 185 181 196 203 225 227 202 240 229 234 228 246 271 241 278
334 330 336 334 334 339 291 206 222 175 155 188 157 148 138 114 146 106 138 156 185 172 226 230 231 233 292 295 226 197 173 246 237 260 265 276 271 264 256 241 232 233 276 273
335 333 334 335 334 345 342 320 204 169 154 147 154 128 178 178 140 150 206 210 185 209 219 215 188 218 194 220 100 166 194 258 284 282 276 265 270 274 267 253 237 248 255 272
335 334 333 336 338 360 344 330 279 228 145 144 137 183 163 164 139 228 207 202 209 215 229 229 246 231 322 9 25 179 172 215 250 271 307 296 263 307 308 184 197 220 230 246
337 333 335 340 335 349 309 281 267 217 146 159 167 153 152 179 203 216 195 215 208 178 111 266 250 231 263 281 254 218 226 214 250 296 310 320 252 222 299 300 253 210 265 226
337 331 338 337 332 339 322 283 292 304 118 164 158 157 187 226 228 219 229 212 220 130 132 194 156 154 202 236 237 219 206 216 261 271 286 285 272 151 238 47 316 300 11 87
338 329 337 335 329 339 334 291 245 284 101 196 153 187 203 182 199 196 214 198 147 175 168 196 196 174 179 188 175 84 170 221 197 356 301 281 258 305 313 151 257 339 336 73
335 329 336 328 331 338 341 268 269 269 129 235 125 161 176 179 147 180 199 305 216 187 177 160 148 200 175 166 171 156 145 154 234 222 282 283 256 285 290 87 213 264 258 266
329 325 331 323 334 340 356 287 277 280 318 262 174 159 134 121 132 182 172 304 211 164 201 161 195 167 200 153 192 174 161 168 206 179 217 281 351 332 57 255 300 278 279 268
326 328 322 322 331 337 351 284 339 284 245 236 320 265 277 160 160 158 165 242 301 179 165 125 125 118 123 165 220 77 203 187 183 184 211 243 277 253 298 265 258 315 302 124
329 321 313 327 324 327 344 292 298 279 335 305 48 237 133 120 150 159 185 217 253 198 200 158 158 163 137 172 227 200 233 180 207 18 267 241 259 237 130 345 11 20 74 100
317 318 320 315 318 318 325 291 304 288 314 187 287 103 57 115 151 158 192 142 327 282 139 135 127 186 171 246 265 191 198 136 191 262 279 275 248 217 138 102 92 84 64 84
321 317 319 317 315 314 307 265 245 237 290 319 347 127 112 164 154 174 189 212 251 209 165 149 207 148 138 207 321 252 185 187 171 216 231 179 246 130 132 128 130 119 113 96
320 313 310 310 309 315 309 273 199 212 244 346 339 212 167 128 163 206 229 239 256 221 180 214 227 150 165 217 221 254 201 203 185 232 56 58 80 95 101 113 125 107 99 108
312 305 303 301 296 267 234 293 320 332 287 244 320 328 302 151 138 218 241 193 234 208 263 234 138 243 193 233 221 239 202 240 208 152 140 115 165 153 111 109 109 98 86 87
304 296 293 287 279 269 262 240 240 184 161 81 147 265 314 158 196 205 314 188 202 183 303 280 173 174 206 254 238 238 148 137 116 97 328 77 112 100 99 113 120 105 103 108
295 286 264 236 212 233 254 121 115 170 180 178 141 175 245 354 8 74 64 347 229 112 250 221 201 178 223 229 236 203 189 194 150 87 80 95 107 119 120 121 107 114 115 109
121 133 186 194 211 149 154 71 135 8 331 41 224 146 180 121 130 48 23 15 24 310 291 341 226 257 267 252 270 355 165 147 143 112 100 115 117 142 139 127 118 125 124 120
341 226 254 315 92 116 37 87 153 155 303 202 231 182 135 5 140 167 34 240 329 285 272 261 260 265 256 355 291 317 236 160 165 1 139 149 147 144 130 117 111 115 117 116
283 291 290 345 45 66 127 164 65 218 227 219 167 168 123 112 355 94 11 16 10 251 322 290 260 259 358 14 2 0 88 143 99 91 122 120 121 126 120 120 117 107 111 115
348 23 337 40 342 153 206 178 217 233 226 191 136 97 107 117 69 71 85 191 237 344 310 246 237 270 318 12 19 59 59 88 87 81 84 103 105 109 120 114 109 112 104 105
52 27 248 226 173 231 187 177 193 273 317 176 103 88 104 112 73 97 136 245 4 295 271 240 251 253 174 68 68 107 93 97 100 98 101 102 103 97 96 104 116 115 109 110
86 272 215 199 293 236 181 158 285 243 250 130 93 68 104 63 104 75 107 13 251 219 233 237 249 238 144 114 100 121 117 112 105 113 113 113 113 109 99 99 106 109 110 108
61 36 2 299 313 147 67 224 253 225 175 49 66 107 108 176 134 123 215 145 227 244 222 245 259 172 130 127 124 118 110 105 106 107 112 113 114 114 109 96 102 103 109 111
50 350 351 301 288 269 286 211 263 333 108 230 130 168 209 83 64 262 197 213 227 220 268 249 218 181 153 127 111 109 113 112 112 110 106 107 112 113 106 99 74 91 93 97